• In Lithuania
  • List of Countries
  • For 7 days
  • Water Temperature
  • Satellite Maps
  • Weather Map
  • Weather Widgets
  • user-avatar
    Login

    Hourly Weather Port-Loko

    Today, 18 January, Thursday

    Time Temperature Precipitation Wind Pressure Humidity
    00:00 +27°C° 0 mm 1 mps 756 mmHg 59%
    01:00 +26°C° 0 mm 1 mps 756 mmHg 60%
    02:00 +26°C° 0 mm 1 mps 756 mmHg 60%
    03:00 +26°C° 0 mm 1 mps 756 mmHg 62%
    04:00 +25°C° 0 mm 1 mps 756 mmHg 64%
    05:00 +23°C° 0 mm 0 mps 756 mmHg 66%
    06:00 +26°C° 0 mm 1 mps 756 mmHg 61%
    07:00 +27°C° 0 mm 1 mps 756 mmHg 56%
    08:00 +29°C° 0 mm 2 mps 757 mmHg 51%
    09:00 +31°C° 0 mm 2 mps 757 mmHg 41%
    10:00 +35°C° 0 mm 2 mps 757 mmHg 31%
    11:00 +38°C° 0 mm 3 mps 756 mmHg 21%
    12:00 +39°C° 0 mm 2 mps 756 mmHg 18%
    13:00 +40°C° 0 mm 2 mps 755 mmHg 16%
    14:00 +42°C° 0 mm 2 mps 754 mmHg 13%
    15:00 +40°C° 0 mm 2 mps 754 mmHg 17%
    16:00 +39°C° 0 mm 2 mps 754 mmHg 20%
    17:00 +37°C° 0 mm 2 mps 754 mmHg 24%
    18:00 +35°C° 0 mm 2 mps 754 mmHg 34%
    19:00 +31°C° 0 mm 2 mps 755 mmHg 44%
    20:00 +28°C° 0 mm 2 mps 756 mmHg 55%
    21:00 +28°C° 0 mm 2 mps 756 mmHg 60%
    22:00 +27°C° 0 mm 1 mps 756 mmHg 66%
    23:00 +26°C° 0 mm 1 mps 756 mmHg 71%

    Tomorrow, 19 January, Friday

    Time Temperature Precipitation Wind Pressure Humidity
    00:00 +26°C° 0 mm 1 mps 756 mmHg 73%
    01:00 +25°C° 0 mm 1 mps 756 mmHg 74%
    02:00 +25°C° 0 mm 1 mps 756 mmHg 76%
    03:00 +25°C° 0 mm 1 mps 755 mmHg 78%
    04:00 +24°C° 0 mm 1 mps 755 mmHg 80%
    05:00 +24°C° 0 mm 1 mps 755 mmHg 83%
    06:00 +25°C° 0 mm 1 mps 756 mmHg 77%
    07:00 +27°C° 0 mm 1 mps 756 mmHg 71%
    08:00 +28°C° 0 mm 1 mps 757 mmHg 65%
    09:00 +31°C° 0 mm 1 mps 757 mmHg 53%
    10:00 +34°C° 0 mm 1 mps 756 mmHg 41%
    11:00 +37°C° 0 mm 1 mps 756 mmHg 29%
    12:00 +39°C° 0 mm 1 mps 755 mmHg 26%
    13:00 +40°C° 0 mm 2 mps 754 mmHg 24%
    14:00 +40°C° 0 mm 2 mps 754 mmHg 21%
    15:00 +39°C° 0 mm 2 mps 754 mmHg 25%
    16:00 +38°C° 0 mm 2 mps 754 mmHg 29%
    17:00 +36°C° 0 mm 2 mps 753 mmHg 33%
    18:00 +34°C° 0 mm 2 mps 754 mmHg 43%
    19:00 +30°C° 0 mm 2 mps 755 mmHg 53%
    20:00 +28°C° 0 mm 2 mps 755 mmHg 63%
    21:00 +27°C° 0 mm 2 mps 756 mmHg 68%
    22:00 +27°C° 0 mm 1 mps 756 mmHg 72%
    23:00 +26°C° 0 mm 1 mps 756 mmHg 76%

    Day after tomorrow, 20 January, Saturday

    Time Temperature Precipitation Wind Pressure Humidity
    00:00 +26°C° 0 mm 1 mps 756 mmHg 78%
    01:00 +25°C° 0 mm 1 mps 756 mmHg 81%
    02:00 +23°C° 0 mm 0 mps 755 mmHg 83%
    03:00 +23°C° 0 mm 0 mps 755 mmHg 85%
    04:00 +23°C° 0 mm 0 mps 756 mmHg 86%
    05:00 +22°C° 0 mm 0 mps 756 mmHg 87%
    06:00 +24°C° 0 mm 0 mps 756 mmHg 81%
    07:00 +25°C° 0 mm 0 mps 757 mmHg 75%
    08:00 +29°C° 0 mm 1 mps 757 mmHg 69%
    09:00 +30°C° 0 mm 0 mps 757 mmHg 58%
    10:00 +33°C° 0 mm 0 mps 757 mmHg 47%
    11:00 +36°C° 0 mm 0 mps 757 mmHg 36%
    12:00 +39°C° 0 mm 1 mps 756 mmHg 33%
    13:00 +40°C° 0 mm 1 mps 755 mmHg 30%
    14:00 +40°C° 0 mm 1 mps 754 mmHg 27%
    15:00 +39°C° 0 mm 2 mps 754 mmHg 30%
    16:00 +37°C° 0 mm 2 mps 754 mmHg 33%
    17:00 +36°C° 0 mm 2 mps 754 mmHg 36%
    18:00 +34°C° 0 mm 2 mps 754 mmHg 44%
    19:00 +31°C° 0 mm 2 mps 755 mmHg 53%
    20:00 +29°C° 0 mm 2 mps 756 mmHg 62%
    21:00 +28°C° 0 mm 2 mps 756 mmHg 66%
    22:00 +27°C° 0 mm 1 mps 756 mmHg 71%
    23:00 +27°C° 0 mm 1 mps 756 mmHg 75%

    21 January, Sunday

    Time Temperature Precipitation Wind Pressure Humidity
    00:00 +26°C° 0 mm 1 mps 756 mmHg 78%
    01:00 +26°C° 0 mm 1 mps 756 mmHg 81%
    02:00 +24°C° 0 mm 0 mps 755 mmHg 83%
    03:00 +23°C° 0 mm 0 mps 755 mmHg 85%
    04:00 +23°C° 0 mm 0 mps 756 mmHg 86%
    05:00 +23°C° 0 mm 0 mps 756 mmHg 88%
    06:00 +24°C° 0 mm 0 mps 756 mmHg 81%
    07:00 +26°C° 0 mm 0 mps 757 mmHg 75%
    08:00 +27°C° 0 mm 0 mps 757 mmHg 69%
    09:00 +32°C° 0 mm 1 mps 757 mmHg 59%
    10:00 +34°C° 0 mm 1 mps 757 mmHg 49%
    11:00 +37°C° 0 mm 1 mps 756 mmHg 39%
    12:00 +39°C° 0 mm 1 mps 755 mmHg 35%
    13:00 +39°C° 0 mm 1 mps 755 mmHg 31%
    14:00 +40°C° 0 mm 1 mps 754 mmHg 27%
    15:00 +38°C° 0 mm 2 mps 754 mmHg 32%
    16:00 +37°C° 0 mm 2 mps 754 mmHg 36%
    17:00 +36°C° 0 mm 2 mps 754 mmHg 41%
    18:00 +32°C° 0 mm 2 mps 754 mmHg 52%
    19:00 +30°C° 0 mm 2 mps 755 mmHg 63%
    20:00 +28°C° 0 mm 3 mps 756 mmHg 74%
    21:00 +28°C° 0 mm 2 mps 756 mmHg 77%
    22:00 +27°C° 0 mm 1 mps 756 mmHg 80%
    23:00 +27°C° 0 mm 1 mps 756 mmHg 84%

    22 January, Monday

    Time Temperature Precipitation Wind Pressure Humidity
    00:00 +26°C° 0 mm 1 mps 756 mmHg 86%
    01:00 +24°C° 0 mm 0 mps 755 mmHg 88%
    02:00 +23°C° 0 mm 0 mps 755 mmHg 91%
    03:00 +23°C° 0 mm 0 mps 755 mmHg 92%
    04:00 +23°C° 0 mm 0 mps 755 mmHg 94%
    05:00 +22°C° 0 mm 0 mps 755 mmHg 95%
    06:00 +24°C° 0 mm 0 mps 756 mmHg 88%
    07:00 +25°C° 0 mm 0 mps 756 mmHg 81%
    08:00 +29°C° 0 mm 1 mps 757 mmHg 74%
    09:00 +30°C° 0 mm 0 mps 757 mmHg 61%
    10:00 +33°C° 0 mm 0 mps 757 mmHg 48%
    11:00 +36°C° 0 mm 0 mps 756 mmHg 35%
    12:00 +40°C° 0 mm 1 mps 755 mmHg 31%
    13:00 +40°C° 0 mm 1 mps 754 mmHg 28%
    14:00 +40°C° 0 mm 1 mps 754 mmHg 25%
    15:00 +39°C° 0 mm 2 mps 753 mmHg 30%
    16:00 +37°C° 0 mm 2 mps 753 mmHg 34%
    17:00 +35°C° 0 mm 2 mps 753 mmHg 39%
    18:00 +32°C° 0 mm 2 mps 754 mmHg 51%
    19:00 +30°C° 0 mm 2 mps 754 mmHg 62%
    20:00 +28°C° 0 mm 3 mps 755 mmHg 74%
    21:00 +27°C° 0 mm 2 mps 755 mmHg 78%
    22:00 +27°C° 0 mm 2 mps 755 mmHg 82%
    23:00 +26°C° 0 mm 1 mps 755 mmHg 86%

    23 January, Tuesday

    Time Temperature Precipitation Wind Pressure Humidity
    00:00 +26°C° 0 mm 1 mps 755 mmHg 88%
    01:00 +25°C° 0 mm 1 mps 755 mmHg 90%
    02:00 +25°C° 0 mm 1 mps 755 mmHg 92%
    03:00 +23°C° 0 mm 0 mps 755 mmHg 93%
    04:00 +22°C° 0 mm 0 mps 755 mmHg 95%
    05:00 +22°C° 0 mm 0 mps 755 mmHg 96%
    06:00 +24°C° 0 mm 0 mps 756 mmHg 89%
    07:00 +25°C° 0 mm 0 mps 756 mmHg 82%
    08:00 +28°C° 0 mm 1 mps 756 mmHg 74%
    09:00 +31°C° 0 mm 1 mps 756 mmHg 62%
    10:00 +32°C° 0 mm 0 mps 756 mmHg 50%
    11:00 +35°C° 0 mm 0 mps 756 mmHg 38%
    12:00 +39°C° 0 mm 1 mps 755 mmHg 35%
    13:00 +39°C° 0 mm 1 mps 754 mmHg 32%
    14:00 +39°C° 0 mm 2 mps 754 mmHg 30%
    15:00 +38°C° 0 mm 2 mps 754 mmHg 35%
    16:00 +36°C° 0 mm 2 mps 754 mmHg 39%
    17:00 +35°C° 0 mm 2 mps 754 mmHg 44%
    18:00 +32°C° 0 mm 2 mps 754 mmHg 54%
    19:00 +30°C° 0 mm 2 mps 755 mmHg 64%
    20:00 +28°C° 0 mm 2 mps 755 mmHg 74%
    21:00 +27°C° 0 mm 2 mps 755 mmHg 77%
    22:00 +27°C° 0 mm 2 mps 755 mmHg 80%
    23:00 +26°C° 0 mm 1 mps 755 mmHg 83%
    Show more